Weather History for Newberry, MI

Change the Weather History Date:

Wednesday, May 9, 2012

  Actual Average Record
Temperature  
Mean Temperature 46 °F -  
Max Temperature 53 °F 58 °F 84 °F (1953)
Min Temperature 39 °F 36 °F 19 °F (1966)
Degree Days  
Heating Degree Days 19    
Moisture  
Dew Point 33 °F    
Average Humidity 65    
Maximum Humidity 100    
Minimum Humidity 30    
Precipitation  
Precipitation 0.00 in - - ()
Sea Level Pressure  
Sea Level Pressure 29.86 in    
Wind  
Wind Speed 7 mph (NW)    
Max Wind Speed 17 mph    
Max Gust Speed 30 mph    
Visibility 10 miles    
Events Rain    
Averages and records for this station are not official NWS values.
T = Trace of Precipitation, MM = Missing Value Source: NWS Daily Summary

Daily Weather History Graph

Daily Weather History Graph

Search for Another Location

Airport:

Trip Planner

Search our weather history database for the weather conditions in past years. The results will help you decide how hot, cold, wet, or windy it might be!

Date:

Astronomy

May. 09, 2012 Rise Set
Actual Time 6:15 AM EDT 9:01 PM EDT
Civil Twilight 5:41 AM EDT 9:36 PM EDT
Nautical Twilight 4:57 AM EDT 10:20 PM EDT
Astronomical Twilight 4:06 AM EDT 11:12 PM EDT
Moon 12:14 AM EDT (5/9) 9:26 AM EDT (5/9)
Length of Visible Light 15h 55m
Length of Day
14h 45m
Waning Gibbous, 83% of the Moon is Illuminated
May 9
Waning Gibbous
May 12
Last Quarter
May 20
New
May 28
First Quarter
Jun 4
Full

Hourly Weather History & Observations

Time (EDT) Temp. Windchill Dew Point Humidity Pressure Visibility Wind Dir Wind Speed Gust Speed Precip Events Conditions
12:14 AM 44.6 °F - 42.8 °F 93% 29.83 in 10.0 mi Calm Calm - N/A Rain Light Rain
12:34 AM 44.6 °F 42.2 °F 42.8 °F 93% 29.82 in 10.0 mi North 4.6 mph - N/A   Overcast
12:55 AM 42.8 °F 41.1 °F 42.8 °F 100% 29.83 in 10.0 mi NNW 3.5 mph - N/A   Overcast
1:14 AM 42.8 °F 39.3 °F 42.8 °F 100% 29.82 in 10.0 mi NNW 5.8 mph - N/A   Overcast
1:34 AM 42.8 °F 40.1 °F 41.0 °F 93% 29.82 in 10.0 mi NW 4.6 mph - N/A   Overcast
1:54 AM 42.8 °F 39.3 °F 39.2 °F 87% 29.81 in 10.0 mi North 5.8 mph - N/A   Overcast
2:14 AM 41.0 °F 38.0 °F 39.2 °F 93% 29.81 in 10.0 mi NNW 4.6 mph - N/A   Overcast
2:35 AM 41.0 °F 38.0 °F 39.2 °F 93% 29.81 in 10.0 mi North 4.6 mph - N/A   Overcast
2:54 AM 39.2 °F 37.0 °F 37.4 °F 93% 29.81 in 10.0 mi NNW 3.5 mph - N/A   Mostly Cloudy
3:15 AM 39.2 °F 35.9 °F 37.4 °F 93% 29.81 in 10.0 mi NW 4.6 mph - N/A   Mostly Cloudy
3:35 AM 39.2 °F 37.0 °F 37.4 °F 93% 29.81 in 10.0 mi NNW 3.5 mph - N/A   Overcast
3:54 AM 39.2 °F 35.9 °F 37.4 °F 93% 29.81 in 10.0 mi NNW 4.6 mph - N/A   Overcast
4:15 AM 39.2 °F 35.0 °F 39.2 °F 100% 29.81 in 10.0 mi NNW 5.8 mph - N/A   Overcast
4:35 AM 39.2 °F 35.9 °F 39.2 °F 100% 29.82 in 10.0 mi NNW 4.6 mph - N/A   Overcast
4:54 AM 39.2 °F 35.9 °F 39.2 °F 100% 29.82 in 10.0 mi NNW 4.6 mph - N/A   Overcast
5:15 AM 39.2 °F 35.0 °F 39.2 °F 100% 29.82 in 10.0 mi NNW 5.8 mph - N/A   Overcast
5:34 AM 39.2 °F 35.0 °F 39.2 °F 100% 29.83 in 10.0 mi NW 5.8 mph - N/A   Overcast
5:54 AM 39.2 °F 35.9 °F 37.4 °F 93% 29.83 in 10.0 mi NW 4.6 mph - N/A   Overcast
6:14 AM 39.2 °F 35.9 °F 37.4 °F 93% 29.83 in 10.0 mi NNW 4.6 mph - N/A   Overcast
6:34 AM 39.2 °F 35.9 °F 37.4 °F 93% 29.84 in 10.0 mi NNW 4.6 mph - N/A   Scattered Clouds
6:55 AM 39.2 °F 35.9 °F 37.4 °F 93% 29.84 in 10.0 mi NNW 4.6 mph - N/A   Overcast
7:14 AM 41.0 °F 38.0 °F 37.4 °F 87% 29.85 in 10.0 mi NNW 4.6 mph - N/A   Mostly Cloudy
7:34 AM 41.0 °F 37.1 °F 37.4 °F 87% 29.85 in 10.0 mi NNW 5.8 mph - N/A   Scattered Clouds
8:14 AM 42.8 °F 37.5 °F 37.4 °F 81% 29.86 in 10.0 mi North 9.2 mph - N/A   Clear
8:34 AM 42.8 °F 38.0 °F 37.4 °F 81% 29.87 in 10.0 mi North 8.1 mph - N/A   Mostly Cloudy
8:55 AM 46.4 °F 40.4 °F 37.4 °F 71% 29.87 in 10.0 mi North 13.8 mph 20.7 mph N/A   Overcast
9:14 AM 48.2 °F - 37.4 °F 66% 29.87 in 10.0 mi North 13.8 mph 19.6 mph N/A   Overcast
9:35 AM 46.4 °F 41.9 °F 37.4 °F 71% 29.87 in 10.0 mi NNW 9.2 mph 16.1 mph N/A   Overcast
9:54 AM 48.2 °F - 35.6 °F 62% 29.87 in 10.0 mi NNW 10.4 mph - N/A   Mostly Cloudy
10:14 AM 50.0 °F - 37.4 °F 62% 29.87 in 10.0 mi NNW 9.2 mph 20.7 mph N/A   Scattered Clouds
10:35 AM 50.0 °F - 35.6 °F 58% 29.87 in 10.0 mi NNW 13.8 mph 19.6 mph N/A   Clear
10:55 AM 51.8 °F - 35.6 °F 54% 29.87 in 10.0 mi North 12.7 mph 21.9 mph N/A   Clear
11:14 AM 51.8 °F - 35.6 °F 54% 29.88 in 10.0 mi NNW 11.5 mph 20.7 mph N/A   Scattered Clouds
11:35 AM 51.8 °F - 33.8 °F 50% 29.88 in 10.0 mi North 15.0 mph 21.9 mph N/A   Scattered Clouds
11:54 AM 51.8 °F - 33.8 °F 50% 29.88 in 10.0 mi NW 16.1 mph 24.2 mph N/A   Clear
12:14 PM 51.8 °F - 33.8 °F 50% 29.88 in 10.0 mi NW 11.5 mph 25.3 mph N/A   Clear
12:35 PM 53.6 °F - 32.0 °F 44% 29.88 in 10.0 mi NW 16.1 mph 24.2 mph N/A   Clear
12:54 PM 51.8 °F - 30.2 °F 44% 29.88 in 10.0 mi NNW 15.0 mph 26.5 mph N/A   Clear
1:14 PM 51.8 °F - 32.0 °F 47% 29.88 in 10.0 mi NNW 11.5 mph 23.0 mph N/A   Clear
1:35 PM 53.6 °F - 30.2 °F 41% 29.88 in 10.0 mi NNW 15.0 mph 23.0 mph N/A   Clear
1:54 PM 53.6 °F - 30.2 °F 41% 29.87 in 10.0 mi NNW 16.1 mph 24.2 mph N/A   Clear
2:15 PM 53.6 °F - 30.2 °F 41% 29.88 in 10.0 mi WNW 17.3 mph 29.9 mph N/A   Clear
2:35 PM 53.6 °F - 28.4 °F 38% 29.88 in 10.0 mi WNW 17.3 mph 25.3 mph N/A   Clear
2:54 PM 53.6 °F - 24.8 °F 33% 29.88 in 10.0 mi WNW 16.1 mph 26.5 mph N/A   Clear
3:15 PM 53.6 °F - 23.0 °F 30% 29.88 in 10.0 mi NW 17.3 mph 23.0 mph N/A   Clear
3:34 PM 51.8 °F - 21.2 °F 30% - 10.0 mi NW 16.1 mph 23.0 mph N/A   Clear
3:54 PM 53.6 °F - 24.8 °F 33% 29.88 in 10.0 mi WNW 10.4 mph 19.6 mph N/A   Clear
4:15 PM 51.8 °F - 24.8 °F 35% 29.88 in 10.0 mi North 16.1 mph 21.9 mph N/A   Clear
4:34 PM 51.8 °F - 24.8 °F 35% 29.88 in 10.0 mi NNW 12.7 mph 20.7 mph N/A   Clear
4:54 PM 53.6 °F - 24.8 °F 33% 29.87 in 10.0 mi NW 13.8 mph 23.0 mph N/A   Clear
5:15 PM 53.6 °F - 26.6 °F 35% 29.87 in 10.0 mi North 15.0 mph 19.6 mph N/A   Clear
5:34 PM 51.8 °F - 26.6 °F 38% 29.87 in 10.0 mi NW 8.1 mph 21.9 mph N/A   Clear
5:55 PM 51.8 °F - 26.6 °F 38% 29.88 in 10.0 mi NNW 11.5 mph 18.4 mph N/A   Clear
6:15 PM 51.8 °F - 24.8 °F 35% 29.88 in 10.0 mi NNW 11.5 mph 18.4 mph N/A   Clear
6:34 PM 51.8 °F - 26.6 °F 38% 29.88 in 10.0 mi NNW 9.2 mph 19.6 mph N/A   Clear
6:55 PM 51.8 °F - 26.6 °F 38% 29.88 in 10.0 mi NW 11.5 mph 18.4 mph N/A   Clear
7:14 PM 50.0 °F - 26.6 °F 40% 29.88 in 10.0 mi NNW 10.4 mph 19.6 mph N/A   Clear
7:34 PM 50.0 °F - 26.6 °F 40% 29.88 in 10.0 mi NW 8.1 mph 20.7 mph N/A   Clear
7:55 PM 48.2 °F - 28.4 °F 46% 29.88 in 10.0 mi NNW 5.8 mph - N/A   Clear
8:14 PM 48.2 °F - 28.4 °F 46% 29.89 in 10.0 mi NNW 8.1 mph - N/A   Clear
8:34 PM 46.4 °F 42.4 °F 28.4 °F 50% 29.89 in 10.0 mi NW 8.1 mph - N/A   Clear
8:55 PM 46.4 °F 45.2 °F 30.2 °F 53% 29.89 in 10.0 mi NW 3.5 mph - N/A   Clear
9:14 PM 44.6 °F 43.1 °F 30.2 °F 57% 29.89 in 10.0 mi WNW 3.5 mph - N/A   Clear
9:35 PM 44.6 °F 40.7 °F 30.2 °F 57% 29.89 in 10.0 mi WNW 6.9 mph - N/A   Clear
9:55 PM 42.8 °F 41.1 °F 30.2 °F 61% 29.89 in 10.0 mi WNW 3.5 mph - N/A   Clear
10:14 PM 41.0 °F 37.1 °F 30.2 °F 65% 29.90 in 10.0 mi WNW 5.8 mph - N/A   Clear
10:35 PM 41.0 °F 37.1 °F 30.2 °F 65% 29.90 in 10.0 mi WNW 5.8 mph - N/A   Clear
10:55 PM 39.2 °F 34.2 °F 30.2 °F 70% 29.90 in 10.0 mi West 6.9 mph - N/A   Clear
11:14 PM 39.2 °F 35.0 °F 30.2 °F 70% 29.91 in 10.0 mi West 5.8 mph - N/A   Clear
11:35 PM 39.2 °F 35.0 °F 30.2 °F 70% 29.91 in 10.0 mi WNW 5.8 mph - N/A   Clear
11:54 PM 41.0 °F 36.4 °F 30.2 °F 65% 29.90 in 10.0 mi WNW 6.9 mph - N/A   Clear